Simultaneous Nadir Overpasses (SNOs) Predictions

Prediction of SNOs between NOAA-20 and METOP-B Satellite Orbit:

Table of predicted SNOs for the next 14.0 days since TLE Epoch: 10/22/2022
Index Date (NOAA-20) Time (NOAA-20) Lat,Lon (NOAA-20) SZA (NOAA-20 ) Date (METOP-B) Time (METOP-B) Lat,Lon (METOP-B) SZA (METOP-B ) Distance(km) Time Diff (sec)
1 10/30/2022 18:42:58 73.48,-110.52 87.43 10/30/2022 18:44:04 73.42,-107.67 87.31 90.55 66
2 10/30/2022 19:33:40 -73.37, 57.05 92.69 10/30/2022 19:34:48 -73.34, 59.46 92.77 76.88 68
3 10/30/2022 20:24:22 73.19,-135.24 87.14 10/30/2022 20:25:32 73.10,-133.72 87.02 49.67 70
4 10/30/2022 21:15:04 -73.07, 32.32 92.97 10/30/2022 21:16:16 -73.02, 33.42 93.06 36.01 72
5 10/30/2022 22:05:46 72.89,-159.97 86.85 10/30/2022 22:06:59 72.83,-159.64 86.78 12.57 73
6 10/30/2022 22:56:28 -72.83, 7.47 93.21 10/30/2022 22:57:41 -72.80, 7.61 93.25 5.79 73
7 10/30/2022 23:47:12 72.74, 174.96 86.72 10/30/2022 23:48:21 72.76, 174.87 86.73 3.50 69
8 10/31/2022 00:37:57 -72.78, -17.81 93.23 10/31/2022 00:39:03 -72.78, -17.77 93.25 1.53 66
9 10/31/2022 01:28:42 72.75, 149.57 86.75 10/31/2022 01:29:43 72.74, 149.49 86.73 3.00 61
10 10/31/2022 02:19:26 -72.74, -43.09 93.26 10/31/2022 02:20:25 -72.76, -43.16 93.24 2.73 59
11 10/31/2022 03:10:12 72.76, 124.18 86.78 10/31/2022 03:11:04 72.77, 124.21 86.79 1.85 52
12 10/31/2022 04:00:56 -72.75, -68.48 93.23 10/31/2022 04:01:47 -72.74, -68.54 93.24 2.21 51
13 10/31/2022 04:51:42 72.76, 98.80 86.81 10/31/2022 04:52:26 72.75, 98.83 86.79 1.67 44
14 10/31/2022 05:42:26 -72.75, -93.87 93.20 10/31/2022 05:43:08 -72.77, -93.81 93.19 2.37 42
15 10/31/2022 06:33:11 72.72, 73.52 86.78 10/31/2022 06:33:48 72.73, 73.45 86.79 2.64 37
16 10/31/2022 07:23:56 -72.76,-119.25 93.17 10/31/2022 07:24:30 -72.75,-119.19 93.18 2.34 34
17 10/31/2022 08:14:41 72.72, 48.13 86.81 10/31/2022 08:15:10 72.71, 48.07 86.80 2.52 29
18 10/31/2022 09:05:25 -72.71,-144.54 93.19 10/31/2022 09:05:52 -72.73,-144.58 93.18 1.94 27
19 10/31/2022 09:56:11 72.73, 22.74 86.84 10/31/2022 09:56:31 72.74, 22.79 86.85 2.05 20
20 10/31/2022 10:46:55 -72.72,-169.92 93.16 10/31/2022 10:47:14 -72.71,-169.96 93.18 1.85 19
21 10/31/2022 11:37:41 72.74, -2.65 86.87 10/31/2022 11:37:53 72.72, -2.59 86.85 2.49 12
22 10/31/2022 12:28:25 -72.73, 164.69 93.13 10/31/2022 12:28:35 -72.74, 164.77 93.13 2.82 10
23 10/31/2022 13:19:10 72.69, -27.93 86.85 10/31/2022 13:19:15 72.70, -27.97 86.86 1.77 5
24 10/31/2022 14:09:55 -72.73, 139.30 93.10 10/31/2022 14:09:57 -72.72, 139.39 93.12 3.17 2
25 10/31/2022 15:00:40 72.70, -53.32 86.88 10/31/2022 15:00:37 72.68, -53.35 86.86 2.28 3
26 10/31/2022 15:51:24 -72.69, 114.02 93.13 10/31/2022 15:51:19 -72.70, 114.00 93.12 1.21 5
27 10/31/2022 16:42:10 72.70, -78.70 86.91 10/31/2022 16:41:58 72.71, -78.63 86.91 2.55 12
28 10/31/2022 17:32:54 -72.69, 88.63 93.10 10/31/2022 17:32:41 -72.68, 88.62 93.11 1.86 13
29 10/31/2022 18:23:40 72.71,-104.09 86.93 10/31/2022 18:23:20 72.69,-104.01 86.92 3.36 20
30 10/31/2022 19:14:24 -72.70, 63.25 93.07 10/31/2022 19:14:02 -72.71, 63.35 93.06 3.43 22
31 10/31/2022 20:05:09 72.67,-129.37 86.91 10/31/2022 20:04:42 72.67,-129.39 86.92 0.89 27
32 10/31/2022 20:55:53 -72.65, 37.96 93.09 10/31/2022 20:55:24 -72.69, 37.97 93.06 3.63 29
33 10/31/2022 21:46:39 72.67,-154.76 86.94 10/31/2022 21:46:04 72.65,-154.77 86.92 2.38 35
34 10/31/2022 22:37:23 -72.66, 12.58 93.07 10/31/2022 22:36:46 -72.67, 12.58 93.06 0.76 37
35 10/31/2022 23:28:09 72.68, 179.85 86.97 10/31/2022 23:27:25 72.68, 179.95 86.97 3.23 44
36 11/01/2022 00:18:53 -72.67, -12.81 93.04 11/01/2022 00:18:08 -72.65, -12.80 93.05 2.24 45
37 11/01/2022 01:09:38 72.63, 154.57 86.95 11/01/2022 01:08:47 72.66, 154.57 86.98 3.11 51
38 11/01/2022 02:00:22 -72.62, -38.09 93.06 11/01/2022 01:59:30 -72.63, -38.18 93.05 2.83 52
39 11/01/2022 02:51:08 72.64, 129.18 86.97 11/01/2022 02:50:09 72.64, 129.19 86.98 0.22 59
40 11/01/2022 03:41:52 -72.63, -63.48 93.03 11/01/2022 03:40:51 -72.66, -63.45 93.00 3.37 61
41 11/01/2022 04:32:38 72.65, 103.80 87.00 11/01/2022 04:31:31 72.62, 103.81 86.98 2.80 67
42 11/01/2022 05:23:22 -72.63, -88.87 93.00 11/01/2022 05:22:13 -72.64, -88.83 92.99 1.12 69
43 11/01/2022 06:14:07 72.60, 78.51 86.98 11/01/2022 06:12:53 72.60, 78.43 86.99 2.90 74
44 11/01/2022 07:04:50 -72.54,-114.05 93.08 11/01/2022 07:03:36 -72.57,-114.32 93.04 9.54 74
45 11/01/2022 07:55:31 72.30, 53.74 86.69 11/01/2022 07:54:20 72.32, 52.53 86.75 40.75 71
46 11/01/2022 08:46:15 -72.29,-138.93 93.31 11/01/2022 08:45:03 -72.29,-140.21 93.28 43.21 72
47 11/01/2022 09:36:55 72.00, 28.94 86.40 11/01/2022 09:35:48 72.00, 26.56 86.45 81.90 67
48 11/01/2022 10:27:38 -71.94,-163.63 93.65 11/01/2022 10:26:31 -71.96,-166.17 93.57 87.76 67



Historial Predications of SNOs between NOAA-20 and METOP-B
